STARLINK-2385, 47804

Orbit data source: Space-Track

STARLINK-2385, 47804 is a payload satellite owned by SpaceX/Seattle (US) in LEO that was launched on Thu, 11 Mar 2021 UTC via an FALCON 9 launch vehicle from the Air Force Eastern Test Range (AFETR). Payload-class satellites include a variety of spacecraft equipped with specific instruments for various scientific and technological missions. These include communications satellites like Starlink; space stations such as the ISS; scientific satellites like the Hubble; Earth observation satellites from companies like Planet Labs, Umbra, and HawkEye 360; GPS; miniature CubeSats for education and research; and military/defense satellites.

Loading next visibility...
Identifier
47804, 2021-018T
Orbit
LEO
Country
Flag of USUS
Related business
Manufacturer
SpaceX/Seattle
Mission
Operational Commercial Communications
Bus & Motor
STARLINK, Unknown motor
Mass
260 kg wet, ~248 kg dry
Launch date (UTC)
2021-03-11 (5 years ago)
Launch vehicle
FALCON 9
Launch site
Air Force Eastern Test Range (AFETR)
Object type
Payload
Rocket body
Debris
Shape & HBR
Box + 1 Pan, 10.1 m
Radar Cross Section
13.562 m², Large (>1 m²)

Expand to show TLE details & history
Last TLE update: 12 hours ago

TLE from 12 hours ago
0 STARLINK-2385
1 47804U 21018T   26120.01857388  .00007473  00000-0  25249-3 0  9992
2 47804  53.1621 351.5606 0001283 103.8711 256.2433 15.31680868284751
Epoch: 2026-04-30T00:26Z
TLE epoch observation values (Epoch: 2026-04-30T00:26:44.783Z)
Latitude
-0.00003°
Longitude
126.90278°
Altitude
471.907 km
Speed
7.631 km/s
True Right ascension
23h 26m 14s
True Declination
0° 00' 00"
Sunlit
Object was in daylight at epoch
Visualization orbit readout
Latitude
Unknown
Longitude
Unknown
Altitude
Unknown
Speed
Unknown
Apparent Right ascension
Unknown
Apparent Declination
Unknown
Sunlit
N/A
Visualization observer readout
Local Sidereal Time
20:12:14
Azimuth
Unknown
Elevation
Unknown
Doppler factor
Unknown
Orbital elements
Apogee altitude
471.932 km
Perigee altitude
470.175 km
Semi-major axis
6,849.19 km
Eccentricity
0.00013
Inclination
53.1621°
RAAN
351.5606°
Arg. of periapsis
103.8711°
True anomaly
256.22902°
Mean anomaly
256.2433°
Eccentric anomaly
256.23616°
Mean motion
3.82899 °/min
Orbital period
94.02 mins
BSTAR
0.00025249
Loading maneuver chart data...
Computing Atmospheric mass density...
Loading historical data...
Loading historical data...
Loading historical data...
Loading historical data...
Loading historical data...
Loading historical data...
Loading historical data...

Documentation

Showing up to 5 results
|